Aeroporto :







RITROVATECI SU...

 
LOGIN :

Iscrizione | Disclaimer

   EN    FR    IT 

 









Sommario :    VFR   VFR Marginale   IFR   IFR Intensivo   IFR Molto Intensivo
Visibilità : 
Base nubi : 
>= 8 km
>= 3000ft
5 / 8 km
1000 / 3000 ft
1500m / 5 km
500 / 1000 ft
800 / 1500m
200 / 500 ft
< 800m
< 200 ft
Simboli :   Temporali  Nebbia  Neve Forte  Precipitazioni Forti  Vento > 20 kt






- Altitudine del aeroporto : 333 ft


KWVL - Waterville Robert Lafleur

ULTIMO METAR :
  • 012056Z AUTO 03009KT 10SM BKN029 OVC035 06/00 A2977 RMK AO2 SLP111 60000 T00560000 53001

METARs OBSOLETI :
  • 012052Z AUTO 03009KT 10SM BKN029 OVC035 06/M01 A2977 RMK AO2
  • 012022Z AUTO 03011G19KT 10SM BKN028 OVC034 06/M01 A2976 RMK AO2
  • 012012Z AUTO 03010KT 10SM OVC030 06/M01 A2976 RMK AO2
  • 011956Z AUTO 01012KT 10SM OVC028 06/M01 A2976 RMK AO2 SLP108 T00561006
  • 011941Z AUTO 02011KT 10SM OVC030 06/M01 A2977 RMK AO2
  • 011856Z AUTO 02013KT 10SM OVC026 06/00 A2977 RMK AO2 RAB05E19 SLP111 P0000 T00560000

TAF N/A



MetMap, La meteo Aeronautica in un colpo d'occhio ! - Copyright ORBIFLY Dicembre 2007 - Disclaimer

ORBIFLY MET'MAP TEAM :

Programmazione e sviluppo : Alexandra Zaïnal
Concezione : Baudouin d'Aumeries
Aiuto per la programmazione : Marc-Olivier Méhu
Supporto tecnico e logistico : Manuel Goepfert
Aiuto per la traduzione : Arnaldo La Scala

Contatto : metmap@orbifly.com




FONTI E CREDITI :

   NOAA